Weather Roundup
Issued by NWS

Home | Current Version | Previous Version | Graphics & Text | Print | Product List | Glossary Off
Versions: 1 2 3 4 5 6 7 8 9 10 11 12 13 14 15 16 17 18 19 20 21 22 23 24 25 26 27 28 29 30 31 32 33 34 35 36 37 38 39 40 41 42 43 44 45 46 47 48 49 50

941
NZUS93 KARX 262259
HRRWXR

CURRENT HOURLY OBSERVATIONS ACROSS
MUCH OF THE UPPER MISSISSIPPI VALLEY
NATIONAL WEATHER SERVICE LA CROSSE WI
600 PM CDT SUN MAR 26 2017


...SOUTHEAST MINNESOTA...


CITY           SKY/WX    TMP DP  RH WIND       PRES   REMARKS
ROCHESTER      LGT RAIN  39  39 100 NW9       29.90R FOG     WCI  33
ROCHESTER/MAYO CLOUDY    40  40 100 NW5       29.90R
WINONA         CLOUDY    41  37  87 NW9       29.90R
AUSTIN         CLOUDY    41  39  93 N6        29.88F FOG
ALBERT LEA     CLOUDY    41  41 100 N5        29.90R FOG
DODGE CENTER   DRIZZLE   39  39 100 N7        29.89S WCI  34
PRESTON        CLOUDY    40  37  92 N8        29.89R WCI  34
OWATONNA       CLOUDY    43  37  81 NW6       29.90S
FARIBAULT      CLOUDY    43  39  87 NW6       29.91S
$$

...ELSEWHERE IN MINNESOTA...


CITY           SKY/WX    TMP DP  RH WIND       PRES   REMARKS
MINNEAPOLIS    CLOUDY    43  36  76 N7        29.91R
INTNL FALLS    CLOUDY    44  31  60 NE6       29.92S
DULUTH         FOG       33  33 100 E3        29.92R VSB 1/8
RED WING       CLOUDY    43  39  87 CALM      29.90R FOG
REDWOOD FALLS  CLOUDY    46  36  68 NW6       29.93R
MANKATO        CLOUDY    41  38  89 N8        29.92R
WORTHINGTON    CLOUDY    41  38  89 N12       29.92R
FAIRMONT       CLOUDY    41  38  89 N10       29.92S
$$

...SOUTHWEST WISCONSIN...


CITY           SKY/WX    TMP DP  RH WIND       PRES   REMARKS
LA CROSSE      CLOUDY    42  40  92 W7        29.88R FOG
PRAIRIE DU CHI CLOUDY    44  42  92 NW7       29.86R
BOSCOBEL       CLOUDY    46  43  89 CALM      29.86S
LONE ROCK      CLOUDY    44  41  89 N3        29.86R FOG
PLATTEVILLE    CLOUDY    46  46 100 N7        29.84F
FORT MC COY    CLOUDY    40  40  97 CALM      29.88S
MAUSTON-NEW LI CLOUDY    40  38  96 N3        29.86R FOG
VIROQUA        CLOUDY    41  41 100 N6        29.84F
WIS DELLS      LGT RAIN  40  38  95 CALM      29.85S
$$

...ELSEWHERE IN WISCONSIN...


CITY           SKY/WX    TMP DP  RH WIND       PRES   REMARKS
MILWAUKEE      CLOUDY    43  40  89 NE5       29.83R FOG
MADISON        CLOUDY    43  41  93 NW6       29.84R FOG
GREEN BAY      CLOUDY    38  38 100 NE8       29.86R FOG     WCI  32
EAU CLAIRE     NOT AVBL
BLACK RVR FLS  CLOUDY    41  40  96 CALM      29.87S
MEDFORD        RAIN      39  37  95 CALM      29.85S
WAUSAU         LGT RAIN  39  38  96 CALM      29.84S FOG
WIS RAPIDS     LGT RAIN  40  39  97 N3        29.87S
MARSHFIELD     CLOUDY    39  37  92 NW6       29.85R WCI  35
RICE LAKE      CLOUDY    42  39  88 CALM      29.90S
$$

...NORTHEAST IOWA...


CITY           SKY/WX    TMP DP  RH WIND       PRES   REMARKS
WATERLOO       CLOUDY    47  42  83 W7        29.88R
DUBUQUE        CLOUDY    47  45  93 NW7       29.84R
DECORAH        CLOUDY    43  41  93 N7        29.86R
MASON CITY     CLOUDY    43  41  93 N9        29.90R FOG
CHARLES CITY   CLOUDY    45  45 100 N14       29.88S
OELWEIN        CLOUDY    46  46 100 NW9       29.87S
$$

...ELSEWHERE IN IOWA...


CITY           SKY/WX    TMP DP  RH WIND       PRES   REMARKS
DES MOINES     CLOUDY    48  43  82 NW6       29.90R
IOWA CITY      CLOUDY    50  45  83 W10       29.89R
FORT DODGE     CLOUDY    45  39  81 N7        29.91R
MARSHALLTOWN   CLOUDY    47  45  93 NW9       29.88R
CEDAR RAPIDS   CLOUDY    47  46  97 W10       29.87R
$$

...NORTHERN ILLINOIS...


CITY           SKY/WX    TMP DP  RH WIND       PRES   REMARKS
CHICAGO-OHARE  CLOUDY    58  51  78 W9        29.82R
CHICAGO-MIDWAY CLOUDY    57  51  80 SW8       29.83R
MOLINE         CLOUDY    52  49  89 W14       29.85R FOG
ROCKFORD       CLOUDY    56  52  86 CALM      29.84S
PEORIA         CLOUDY    51  48  89 W8        29.88R
$$

NOTE: "FAIR" INDICATES FEW OR NO CLOUDS BELOW 12,000 FEET WITH NO
SIGNIFICANT WEATHER AND/OR OBSTRUCTIONS TO VISIBILITY. WIND
SPEEDS ARE IN MILES-PER-HOUR.




USA.gov is the U.S. government's official web portal to all federal, state and local government web resources and services.